Zurück zum Katalog

COSMOS 2251 DEB

AktivLEO
NORAD 34560·DEBRIS·🇷🇺 Russia

Gestartet Jun 16, 1993 von Plesetsk Cosmodrome

Loading…

Nächste Überflüge (nächste 24 Stunden)

TLE

AktuellSource: Space-Track

Epoche: Sep 14, 2026, 04:29 UTC

1 34560U 93036UW  26257.18688811  .00005695  00000-0  79432-3 0  9995
2 34560  74.0161 322.8125 0016238 331.3836  59.2834 14.77852408923145

Verfolge COSMOS 2251 DEB in Echtzeit mit AllMySat

Download on the App Store